RH
98 100 100 100 90 80 96 37 49 58 52 91 100 100 49 32 35 44 71 79 91 73 83 90 73 67 81 69 56 71 87 58 53 51 45 54 56 57 64 82 94 96 95 84
100 99 100 100 78 80 100 54 72 99 100 100 100 86 40 41 34 45 82 89 76 69 76 73 68 64 68 65 65 68 58 54 43 42 42 37 40 40 38 41 44 72 78 82
100 90 100 60 50 61 85 100 100 100 100 93 46 39 38 33 31 55 72 86 61 67 56 53 47 49 69 63 53 57 60 62 61 53 42 35 34 31 32 32 32 34 29 33
100 68 83 89 100 100 100 100 100 100 98 39 42 35 38 30 35 53 51 73 49 51 56 43 40 45 55 49 43 40 36 35 48 56 56 49 47 43 31 27 28 24 35 25
87 82 68 95 94 96 95 88 98 100 32 31 34 39 43 26 39 43 40 40 47 38 42 44 31 22 19 18 18 18 18 18 27 45 48 51 50 50 54 53 43 30 24 20
86 87 88 88 83 95 85 80 92 53 24 28 26 29 24 22 36 44 39 36 32 30 34 34 26 22 21 18 25 29 24 20 24 23 33 36 37 36 38 40 38 40 37 38
82 79 82 95 86 82 98 88 74 18 18 23 17 19 18 19 25 38 38 36 33 29 27 25 23 22 21 19 16 26 29 26 25 27 24 24 30 33 34 33 31 31 31 33
61 74 87 69 90 95 92 66 12 13 11 12 15 14 14 14 15 20 30 28 29 31 30 26 22 18 18 19 16 21 20 23 26 27 24 25 30 28 30 25 25 25 24 23
59 63 78 80 94 97 66 14 7 8 10 12 12 11 10 12 13 15 15 16 16 19 18 17 15 18 14 14 14 18 17 17 17 18 18 18 18 17 16 14 15 11 11 9
66 72 87 94 95 55 15 7 6 7 10 10 8 8 8 9 10 11 13 14 16 16 15 15 14 12 13 11 11 10 8 9 8 7 7 8 7 6 5 7 8 6 5 4
64 77 90 93 78 26 7 6 5 5 6 7 6 5 5 6 6 6 7 9 9 9 9 8 7 7 6 5 5 5 5 4 4 4 4 5 6 6 6 6 5 5 6 6
72 79 79 77 43 9 5 5 4 4 5 5 5 5 5 5 6 7 6 6 5 6 5 5 5 5 5 5 6 6 5 6 6 6 5 6 5 5 6 7 7 8 9 11
56 64 70 54 26 7 5 5 5 5 5 5 6 6 6 7 7 7 7 7 6 7 6 6 7 7 7 8 8 10 12 11 11 13 14 15 16 17 18 20 20 19 18 18
52 52 56 41 14 6 5 6 7 7 8 8 8 10 11 11 11 12 11 9 10 10 10 11 12 12 14 14 16 18 19 21 20 21 21 22 24 24 25 25 24 23 23 21
46 41 42 33 11 5 4 5 6 6 7 7 8 8 9 9 9 9 9 9 10 11 12 12 13 15 17 19 22 24 26 28 31 32 32 32 31 30 30 28 30 30 26 22
38 39 35 21 11 5 4 4 5 6 6 6 6 8 9 9 9 8 10 11 14 15 20 19 18 19 22 25 32 34 35 37 38 39 40 39 36 36 32 33 35 32 29 24
33 33 33 31 19 7 5 5 6 6 6 6 6 9 14 14 19 22 22 19 18 20 26 26 29 30 32 38 41 44 45 47 47 46 46 43 44 39 36 38 39 39 35 29
29 28 34 36 38 17 6 6 5 5 5 6 9 11 18 24 30 27 28 30 33 34 33 31 34 42 44 45 46 48 49 48 46 46 47 48 47 43 39 44 45 44 39 38
27 32 31 31 32 39 16 9 7 6 6 6 9 13 15 24 36 39 36 40 40 40 42 44 44 44 46 50 52 52 46 43 40 42 44 48 51 49 46 48 51 51 50 55
28 28 31 36 31 31 34 28 20 11 8 9 10 14 25 32 40 40 39 42 41 41 47 49 46 46 48 51 50 42 38 36 35 37 40 44 50 57 58 57 56 55 60 60
35 33 33 39 41 39 38 31 27 26 14 12 15 22 27 37 49 47 40 45 47 49 53 54 51 51 52 51 46 40 34 34 35 35 38 40 47 53 57 59 58 61 58 44
40 34 33 37 42 40 36 36 40 43 32 21 23 26 34 45 56 55 47 50 56 59 58 58 58 52 50 48 42 41 38 35 36 36 36 38 42 46 52 56 59 54 47 47
42 37 33 30 31 35 38 49 69 69 53 37 32 35 37 42 52 60 54 62 68 65 64 64 62 53 48 45 43 38 34 34 35 36 36 36 40 43 49 54 56 53 55 47
40 36 32 32 27 28 42 59 64 72 73 47 37 44 54 50 60 66 60 75 70 72 77 71 67 55 51 46 41 32 33 34 33 35 36 38 42 46 51 58 60 62 49 34
19 30 34 34 40 38 47 64 66 69 72 72 52 46 51 54 56 68 76 92 78 82 88 82 75 58 52 47 34 31 33 32 32 35 37 40 44 49 58 61 61 47 37 25
7 18 28 41 49 49 56 65 69 64 71 76 79 70 60 55 60 69 68 84 90 92 84 81 71 58 56 48 34 34 32 30 33 37 40 44 45 50 58 58 45 39 27 14
12 6 24 45 47 61 70 70 82 73 68 81 85 89 74 66 68 70 69 85 93 91 87 82 66 59 58 45 38 33 31 31 33 37 41 43 45 52 54 44 41 29 18 5
Wind_Speed
13 14 24 26 33 30 27 37 40 36 33 28 20 21 33 28 32 29 22 18 17 23 33 30 29 25 19 16 21 23 24 23 21 24 21 19 17 18 19 16 16 12 11 11
14 21 20 29 24 31 29 26 32 29 19 20 23 29 35 29 36 28 23 20 25 30 27 27 26 22 25 26 24 23 22 18 14 18 18 16 16 15 13 12 12 12 11 9
21 17 22 24 32 35 33 22 19 20 23 23 34 37 32 32 39 30 27 25 31 29 28 23 21 25 28 31 33 30 27 22 17 15 16 14 14 15 14 13 10 10 7 6
23 22 28 27 23 22 21 19 17 20 23 31 33 33 30 34 36 31 26 27 31 29 25 29 26 28 29 27 25 23 21 20 17 15 14 15 15 15 14 12 13 11 12 11
32 28 26 20 18 21 24 23 19 12 28 28 33 33 31 36 37 29 27 25 28 26 26 24 23 25 21 18 16 14 13 14 14 15 13 15 15 12 12 14 14 13 13 14
26 25 22 19 21 20 20 19 20 20 23 28 30 26 33 43 40 32 30 27 25 23 23 20 17 13 12 14 13 13 12 13 12 11 11 10 10 10 8 8 7 7 9 12
20 22 24 22 22 20 18 18 20 19 21 24 25 29 37 41 37 33 31 29 24 21 19 16 12 9 5 4 8 8 8 7 7 7 6 5 5 6 6 5 5 6 8 10
20 19 21 18 17 18 18 21 22 20 20 22 28 32 33 34 33 30 29 26 24 21 17 12 8 7 6 3 4 3 3 3 5 3 2 1 1 4 5 6 8 9 12 14
17 18 18 15 15 17 19 21 19 19 18 25 29 34 34 31 29 27 25 24 22 20 16 14 11 12 12 11 10 7 4 3 3 3 4 6 8 8 8 9 11 10 12 13
14 13 11 15 18 18 19 20 20 22 24 26 29 30 31 30 29 27 24 21 18 16 15 14 13 10 8 4 3 2 1 2 2 1 3 4 4 5 6 8 10 12 13 15
13 13 12 13 13 16 18 19 23 25 28 30 30 30 30 30 28 26 24 20 19 17 14 13 12 10 8 7 7 6 4 3 1 0 3 5 7 9 10 12 14 16 18 20
11 13 13 9 10 16 19 20 23 25 26 28 28 27 26 25 24 23 20 18 17 16 14 13 11 9 7 5 3 2 2 2 4 5 7 9 12 14 16 19 21 23 26 28
8 9 8 6 7 12 19 22 23 26 26 25 23 22 21 21 19 18 17 15 13 12 10 8 6 4 1 1 3 4 6 8 9 11 12 13 15 16 19 21 23 26 29 32
4 3 3 4 7 9 16 20 23 21 21 21 19 19 17 15 15 13 12 10 9 7 6 4 2 2 4 6 7 9 10 12 14 15 15 17 18 19 20 22 24 26 29 32
6 6 8 8 10 10 11 15 16 15 14 16 15 13 11 10 9 8 6 4 3 2 0 2 3 5 7 9 11 12 14 15 16 19 19 19 21 22 23 24 27 29 31 33
11 11 13 13 13 14 17 12 13 12 11 12 11 8 6 4 3 1 0 1 2 3 5 6 8 9 10 13 14 14 16 18 19 19 21 22 23 25 26 28 30 32 34 35
17 16 14 13 16 18 17 15 12 11 9 9 7 5 3 3 3 3 4 6 6 8 9 8 10 12 13 16 16 17 18 19 20 21 23 24 26 27 29 31 34 36 38 40
25 19 16 16 16 21 22 18 15 14 11 10 9 9 7 6 7 8 8 8 9 10 12 12 12 14 16 17 18 19 20 21 21 23 25 27 30 31 32 35 37 39 42 44
25 25 21 23 20 21 26 24 19 17 14 13 13 12 12 11 12 12 11 10 11 11 13 13 16 18 17 18 19 20 21 22 24 26 28 31 32 34 37 39 41 43 46 50
31 28 26 25 26 26 26 31 25 21 18 15 15 15 15 15 15 15 12 11 13 13 13 15 16 21 21 21 22 21 23 24 27 29 32 34 36 38 40 42 45 47 52 54
37 32 29 28 28 29 30 33 34 28 23 20 18 18 18 20 19 17 16 15 13 14 17 16 17 22 23 23 24 25 26 29 31 34 36 39 40 41 43 46 49 52 55 58
40 37 35 32 31 33 34 36 36 35 31 25 23 21 22 23 21 19 19 18 16 16 18 20 20 23 25 25 26 27 29 32 34 36 39 42 43 44 46 49 51 55 58 63
51 47 46 42 38 37 35 32 31 37 36 33 31 28 28 26 25 24 22 22 21 21 21 22 24 24 25 27 28 29 31 34 36 39 42 45 47 48 50 52 55 59 63 69
65 59 53 50 48 43 37 32 32 34 40 37 34 34 36 33 30 30 26 26 28 27 24 26 27 25 26 29 30 31 34 36 39 42 44 48 49 51 54 56 59 63 67 73
61 66 60 55 50 45 40 35 34 33 36 42 40 38 39 39 37 33 33 27 26 27 29 30 27 26 28 30 31 34 36 38 41 43 46 50 51 53 56 59 62 66 72 78
36 59 63 56 52 47 43 38 37 35 34 38 43 43 41 39 39 34 32 30 26 29 32 31 28 27 29 31 33 36 38 40 42 45 48 51 53 55 57 60 64 71 76 81
32 31 55 57 55 51 46 42 38 36 36 35 41 45 42 41 39 35 31 29 33 33 32 32 28 28 30 31 34 37 38 40 43 47 50 53 55 56 57 61 69 74 80 79
Wind_Direction
53 52 87 75 94 95 93 121 128 138 144 147 167 160 125 137 133 132 118 124 131 126 126 123 118 110 111 123 127 120 119 108 105 104 100 104 103 104 98 93 123 134 130 134
80 89 86 83 115 115 110 133 132 136 152 159 172 134 140 131 137 127 121 126 128 128 130 123 117 110 114 108 112 139 125 121 113 112 112 110 107 114 116 114 108 115 121 136
106 114 87 127 121 123 124 131 138 134 133 133 119 136 132 133 141 130 125 126 131 130 130 133 120 114 116 109 105 108 111 118 125 127 129 136 137 129 128 132 140 146 151 165
116 121 113 113 113 109 109 99 117 130 113 117 126 132 130 136 141 133 124 124 129 130 129 128 115 114 116 110 108 104 100 100 107 112 128 126 126 137 148 158 161 176 189 205
119 119 118 109 114 115 103 104 107 133 103 120 126 128 129 143 141 145 133 122 123 130 138 137 120 114 106 93 84 87 93 102 95 108 122 129 130 134 147 154 163 174 197 217
109 121 115 115 111 115 92 83 79 95 106 122 118 124 138 149 147 148 141 134 135 133 129 133 127 117 99 83 76 76 91 108 100 107 106 114 130 141 148 149 158 176 195 212
109 116 116 108 105 94 81 74 75 88 107 117 124 133 142 154 152 153 147 148 150 151 150 149 150 143 119 75 37 71 79 98 106 103 122 137 151 171 170 178 189 213 225 236
127 112 110 93 89 81 75 82 77 81 104 125 128 128 133 151 158 162 165 164 166 173 178 179 194 210 212 240 321 349 41 82 89 96 74 36 241 245 239 242 241 247 258 264
114 107 85 86 79 78 81 79 86 93 112 130 130 127 127 136 150 162 163 167 168 179 192 211 213 218 217 229 247 247 263 215 171 243 268 274 274 276 282 287 280 284 283 284
101 92 78 78 73 82 79 91 105 112 126 126 127 126 123 124 130 137 150 162 170 163 156 156 148 142 141 154 184 207 203 197 186 201 270 269 282 291 292 276 281 285 288 289
72 70 60 60 73 83 90 98 117 119 122 120 118 117 117 116 118 123 129 135 137 140 139 134 130 125 116 105 95 92 81 64 71 18 269 270 285 286 288 285 290 287 284 283
80 59 49 56 90 99 103 114 118 118 118 117 115 115 113 111 113 114 113 116 114 113 112 107 108 105 102 93 69 64 347 311 286 296 290 288 283 285 289 288 288 287 288 288
71 48 42 84 100 110 121 125 124 121 119 116 116 112 112 110 110 110 112 110 109 110 115 116 115 126 131 279 278 287 286 281 279 279 283 284 287 288 286 287 287 285 285 286
121 80 83 154 157 138 140 140 139 133 128 129 129 122 119 117 118 117 121 126 129 131 134 142 169 234 286 290 290 297 297 295 293 293 293 293 290 289 288 287 289 290 289 288
180 200 189 195 187 172 167 159 156 151 144 140 135 131 126 128 131 131 131 139 137 146 197 289 293 302 304 301 303 305 305 304 304 302 301 299 297 297 296 295 296 295 295 295
214 214 197 200 203 198 190 183 175 167 163 161 152 145 151 157 163 156 111 284 302 309 312 313 314 308 305 300 310 317 309 306 305 302 300 300 298 297 297 299 300 299 300 300
242 224 215 212 216 211 205 198 198 193 188 194 184 190 209 234 255 274 295 295 302 306 309 310 309 304 304 307 319 312 310 308 309 308 306 303 300 300 301 303 303 304 306 305
252 244 237 238 232 223 219 216 214 219 228 228 228 229 242 263 276 274 289 295 303 312 307 306 304 303 309 313 311 312 313 316 315 312 311 309 309 306 306 307 308 309 308 308
246 247 249 245 247 238 232 229 230 235 235 235 240 246 250 264 277 277 280 293 297 304 305 306 304 305 309 308 306 307 314 319 320 320 318 315 313 311 309 310 310 310 310 311
244 247 250 249 251 250 243 239 239 238 241 241 246 257 263 270 279 278 281 290 292 296 301 303 301 302 307 308 308 312 316 320 322 322 322 319 316 314 312 311 310 311 312 314
232 239 242 247 250 254 252 244 241 242 240 242 249 258 266 275 279 280 279 283 288 293 298 300 298 298 304 304 307 309 313 318 321 322 323 321 319 317 315 313 313 314 314 317
229 229 236 244 249 253 257 254 245 238 238 238 245 255 263 269 274 271 274 279 284 290 292 296 299 301 304 305 308 310 313 315 318 321 322 321 319 320 318 317 316 317 319 320
240 244 240 242 247 251 257 261 253 237 233 236 241 249 261 266 272 268 266 280 284 284 288 294 294 303 308 309 311 312 313 316 319 319 321 321 322 322 320 319 319 320 321 324
241 243 245 245 245 249 254 253 256 250 238 234 236 241 254 260 266 264 260 272 283 285 287 289 296 305 309 310 311 312 316 320 318 319 321 321 323 323 321 321 322 322 324 328
243 244 243 242 243 241 241 247 252 253 245 240 238 240 243 249 256 264 263 271 283 287 285 287 297 303 306 309 311 314 319 320 320 322 322 322 324 323 323 324 324 325 329 330
273 249 245 246 240 240 235 241 247 249 250 242 239 240 243 248 253 260 261 269 284 284 287 290 296 302 306 309 312 317 321 322 321 322 322 324 326 325 325 326 327 329 331 332
312 300 243 241 243 244 240 237 242 248 250 246 242 240 242 245 252 258 261 267 273 283 286 289 293 300 304 308 313 319 321 321 322 323 324 326 326 326 327 328 330 332 334 333